NOAA 16 DEB, 42333

Orbit data source: Space-Track

NOAA 16 DEB, 42333 is space debris in SSO originally from a launch on Thu, 21 Sep 2000 UTC launched from the Air Force Western Test Range (AFWTR). Debris objects in space refer to the collection of defunct objects orbiting the Earth. Examples of debris include non-operational satellites, rocket bodies, and fragments generated from explosions, collisions, or faulty payload assembly.

Loading next visibility...
Identifier
42333, 2000-055PZ
Orbit
SSO
Country
Flag of USUS
Related business
Manufacturer
Unknown
Mission
Spacecraft
Bus & Motor
Unknown
Mass
Unknown
Launch date (UTC)
2000-09-21 (25 years ago)
Launch vehicle
Unknown
Launch site
Air Force Western Test Range (AFWTR)
Object type
Payload
Rocket body
Debris
Shape & HBR
Unknown
Radar Cross Section
Small (<0.1 m²)

Expand to show TLE details & history
Last TLE update: 4 days ago

TLE from 4 days ago
0 NOAA 16 DEB
1 42333U 00055PZ  25255.26788830  .00003300  00000-0  14108-2 0  9998
2 42333  98.9575  12.0708 0014402 305.1849  54.7981 14.25611097490350
Epoch: 2025-09-12T06:25Z
TLE epoch observation values (Epoch: 2025-09-12T06:25:45.549Z)
Latitude
0.00006°
Longitude
-75.88704°
Altitude
803.397 km
Speed
7.455 km/s
True Right ascension
00h 48m 16s
True Declination
0° 00' 00"
Sunlit
Object was in full shadow at epoch
Visualization orbit readout
Latitude
Unknown
Longitude
Unknown
Altitude
Unknown
Speed
Unknown
Apparent Right ascension
Unknown
Apparent Declination
Unknown
Sunlit
N/A
Visualization observer readout
Local Sidereal Time
12:26:48
Azimuth
Unknown
Elevation
Unknown
Doppler factor
Unknown
Orbital elements
Apogee altitude
813.945 km
Perigee altitude
793.259 km
Semi-major axis
7,181.739 km
Eccentricity
0.00144
Inclination
98.9575°
RAAN
12.0708°
Arg. of periapsis
305.1849°
True anomaly
54.93309°
Mean anomaly
54.7981°
Eccentric anomaly
54.86558°
Mean motion
3.56614 °/min
Orbital period
100.95 mins
BSTAR
0.0014108
Loading maneuver chart data...
Computing Atmospheric mass density...
Loading historical data...
Loading historical data...
Loading historical data...
Loading historical data...
Loading historical data...
Loading historical data...
Loading historical data...

Documentation

Showing up to 5 results
|